User: anonymous   Login
Location: Bergnershof
(48.9468°N, 10.9431°E)
Time: 05:04:19
(UTC+00:00)
Language:

FALCON 9 DEB - Orbit

View from above orbital plane
View from above orbital plane
View from above satellite
View from above satellite

Ground track
Ground track

The orbit data is extracted from the following two-line orbital elements,

1 46084U 20055BK  21125.38203138  .00011252  00000-0  12557-3 0  9997
2 46084  53.0141  49.8576 0014296 104.4622 255.7979 15.63265088 46927
Epoch (UTC): 05 May 2021 09:10:07
Eccentricity: 0.0014296
inclination: 53.0141°
perigee height: 368 km
apogee height: 388 km
right ascension of ascending node: 49.8576°
argument of perigee: 104.4622°
revolutions per day: 15.63265088
mean anomaly at epoch: 255.7979°
orbit number at epoch: 4692

The dashed part of the orbit path shows where the satellite is in the earth's shadow,  

DLR